EW5800 Weather Reports


Display with metric or nautical units.
time (UTC)temp
F
wind
direction
speed
MPH
gust
MPH
rain 1hr
in
rain 24hr
in
rain mn
in
humidity
%
barometer
mb
20260507163031 57 227 0.0 0.0 0.00 0.00 0.00 76 1019.5
20260507161535 57 194 0.0 4.0 0.00 0.00 0.00 77 1019.6
20260507160028 57 229 0.0 2.0 0.00 0.00 0.00 77 1019.5
20260507154531 56 224 0.0 1.0 0.00 0.00 0.00 77 1019.6
20260507153036 55 65 0.0 3.0 0.00 0.00 0.00 80 1019.6
20260507151524 55 117 0.0 1.0 0.00 0.00 0.00 79 1019.8
20260507150024 55 68 0.0 0.0 0.00 0.00 0.00 80 1019.8
20260507144521 55 53 0.0 2.0 0.00 0.00 0.00 81 1019.7
20260507143025 54 148 0.0 0.0 0.00 0.00 0.00 83 1019.8
20260507141519 54 62 0.0 1.0 0.00 0.00 0.00 83 1019.6
20260507140019 54 49 0.0 6.0 0.00 0.00 0.00 83 1019.5
20260507134517 54 36 0.0 1.0 0.00 0.00 0.00 84 1019.6
20260507133019 54 94 0.0 1.0 0.00 0.00 0.00 84 1019.5
20260507131519 54 53 0.0 2.0 0.00 0.00 0.00 84 1019.5
20260507130024 54 27 0.0 2.0 0.00 0.00 0.00 84 1019.4
20260507124519 54 66 0.0 2.0 0.00 0.00 0.00 84 1019.4
20260507123012 54 44 1.0 5.0 0.00 0.00 0.00 84 1019.4
20260507121511 54 62 0.0 2.0 0.00 0.00 0.00 85 1019.4
20260507120019 54 67 0.0 1.0 0.00 0.00 0.00 85 1019.6
20260507114509 54 67 0.0 2.0 0.00 0.00 0.00 85 1019.6
20260507113009 54 69 0.0 0.0 0.00 0.00 0.00 85 1019.7
20260507111509 55 191 0.0 0.0 0.00 0.00 0.00 85 1019.6
20260507110008 55 68 0.0 0.0 0.00 0.00 0.00 84 1019.7
20260507104504 55 55 0.0 0.0 0.00 0.00 0.00 84 1019.6
20260507103002 55 62 0.0 3.0 0.00 0.00 0.00 84 1019.6
20260507101502 55 27 0.0 2.0 0.00 0.00 0.00 84 1019.4
20260507100001 55 53 0.0 5.0 0.00 0.00 0.00 83 1019.3
20260507094501 55 107 0.0 1.0 0.00 0.00 0.00 83 1019.5
20260507093108 55 68 0.0 2.0 0.00 0.00 0.00 83 1019.5
20260507091557 55 126 0.0 0.0 0.00 0.00 0.00 83 1019.5
20260507090056 55 69 0.0 2.0 0.00 0.00 0.00 82 1019.4
20260507084554 56 185 0.0 0.0 0.00 0.00 0.00 82 1019.4
20260507083051 56 41 0.0 3.0 0.00 0.00 0.00 82 1019.4
20260507081549 56 60 0.0 4.0 0.00 0.00 0.00 82 1019.2
20260507080051 56 60 0.0 0.0 0.00 0.00 0.00 82 1019.2
20260507074547 56 67 0.0 0.0 0.00 0.00 0.00 82 1019.1
20260507073046 56 148 0.0 0.0 0.00 0.00 0.00 81 1019.1
20260507073015 56 148 0.0 0.0 0.00 0.00 0.00 81 1019.1
20260507071602 56 43 0.0 1.0 0.00 0.00 0.00 81 1018.9
20260507070043 56 59 0.0 2.0 0.00 0.00 0.00 81 1018.8
20260507064535 56 54 0.0 4.0 0.00 0.00 0.00 81 1018.9
20260507063039 56 49 0.0 1.0 0.00 0.00 0.00 81 1018.8
20260507061600 56 61 0.0 1.0 0.00 0.00 0.00 81 1018.8
20260507060058 56 52 0.0 2.0 0.00 0.00 0.00 80 1018.8
20260507054658 56 62 0.0 4.0 0.00 0.00 0.00 80 1018.7
20260507053122 56 54 0.0 2.0 0.00 0.00 0.00 80 1018.7
20260507051601 57 57 0.0 1.0 0.00 0.00 0.00 79 1018.6
20260507050053 57 53 0.0 2.0 0.00 0.00 0.00 79 1018.6
20260507044556 57 194 0.0 0.0 0.00 0.00 0.00 79 1018.7
20260507043053 57 193 0.0 0.0 0.00 0.00 0.00 78 1018.6
20260507041552 57 200 0.0 0.0 0.00 0.00 0.00 78 1018.6
20260507040050 57 200 0.0 0.0 0.00 0.00 0.00 77 1018.5
20260507034550 57 36 0.0 0.0 0.00 0.00 0.00 77 1018.6
20260507033051 58 51 0.0 1.0 0.00 0.00 0.00 76 1018.6
20260507031553 58 124 0.0 0.0 0.00 0.00 0.00 75 1018.6
20260507030055 58 150 0.0 0.0 0.00 0.00 0.00 75 1018.6
20260507024550 58 126 0.0 1.0 0.00 0.00 0.00 75 1018.7
20260507023045 58 63 0.0 1.0 0.00 0.00 0.00 74 1018.6
20260507021545 59 157 0.0 0.0 0.00 0.00 0.00 74 1018.5
20260507020044 59 148 0.0 0.0 0.00 0.00 0.00 74 1018.5
20260507014551 59 222 0.0 0.0 0.00 0.00 0.00 73 1018.4
20260507013048 59 63 0.0 0.0 0.00 0.00 0.00 74 1018.4
20260507011543 59 116 0.0 0.0 0.00 0.00 0.00 74 1018.5
20260507010041 59 108 0.0 0.0 0.00 0.00 0.00 73 1018.6
20260507004545 59 160 0.0 0.0 0.00 0.00 0.00 74 1018.7
20260507003040 60 65 0.0 1.0 0.00 0.00 0.00 73 1018.6
20260507001547 60 239 0.0 2.0 0.00 0.00 0.00 73 1018.5
20260507000037 60 191 0.0 1.0 0.00 0.00 0.00 73 1018.5
20260506234536 60 166 0.0 1.0 0.00 0.00 0.00 73 1018.5
20260506233037 59 124 0.0 2.0 0.00 0.00 0.00 73 1018.4
20260506231534 59 77 0.0 4.0 0.00 0.00 0.00 76 1018.4
20260506230036 59 47 1.0 5.0 0.00 0.00 0.00 75 1018.5
20260506224534 59 30 0.0 4.0 0.00 0.00 0.00 77 1018.7
20260506223018 60 228 0.0 1.0 0.00 0.00 0.00 75 1018.6
20260506221515 59 106 0.0 3.0 0.00 0.00 0.00 76 1018.7
20260506220028 59 17 0.0 1.0 0.00 0.00 0.00 77 1018.7
20260506214512 59 128 0.0 1.0 0.00 0.00 0.00 77 1018.8
20260506213011 58 66 0.0 5.0 0.00 0.00 0.00 78 1018.7
20260506211521 59 204 0.0 4.0 0.00 0.00 0.00 78 1018.8
20260506210013 58 45 0.0 2.0 0.00 0.00 0.00 78 1018.9
20260506204510 59 198 0.0 3.0 0.00 0.00 0.00 77 1019.0
20260506203018 59 56 0.0 5.0 0.00 0.00 0.00 77 1019.0
20260506201508 59 88 0.0 2.0 0.00 0.00 0.00 78 1019.0
20260506200007 59 58 0.0 3.0 0.00 0.00 0.00 78 1018.9
20260506194505 58 109 0.0 4.0 0.00 0.00 0.00 78 1018.9
20260506193004 58 65 0.0 9.0 0.00 0.00 0.00 79 1019.0
20260506191502 58 67 0.0 6.0 0.00 0.00 0.00 80 1019.0
20260506190004 58 56 0.0 5.0 0.00 0.00 0.00 81 1018.9
20260506184501 58 133 0.0 4.0 0.00 0.00 0.00 79 1018.9
20260506183123 59 200 0.0 0.0 0.00 0.00 0.00 78 1018.8
20260506181603 58 157 0.0 4.0 0.00 0.00 0.00 78 1018.8
20260506180115 58 101 0.0 4.0 0.00 0.00 0.00 81 1018.6
20260506174555 56 87 0.0 4.0 0.00 0.00 0.00 82 1018.7
20260506173121 57 148 0.0 5.0 0.00 0.00 0.00 83 1018.6
20260506171553 56 66 0.0 4.0 0.00 0.00 0.00 83 1018.6
20260506170051 56 67 0.0 5.0 0.00 0.00 0.00 82 1018.6
20260506164549 56 60 1.0 6.0 0.00 0.00 0.00 82 1018.4